H1 CPF 2 NER 2024 7 15 9 197 01 glonass128 H2 1106401 9128 37867 2024 7 15 0 0 0 2024 7 18 23 45 0 900 1 1 0 0 0 1 H9 10 0 60506 0.00000 0 -22499022.646 833260.838 12091000.786 10 0 60506 900.00000 0 -20896044.594 440193.673 14709087.614 10 0 60506 1800.00000 0 -19045920.382 -186441.043 17043117.838 10 0 60506 2700.00000 0 -17008492.179 -1065775.742 19048075.440 10 0 60506 3600.00000 0 -14848095.214 -2204985.931 20685271.104 10 0 60506 4500.00000 0 -12630995.680 -3598755.040 21923073.113 10 0 60506 5400.00000 0 -10422766.710 -5229264.219 22737507.504 10 0 60506 6300.00000 0 -8285709.002 -7066708.799 23112717.190 10 0 60506 7200.00000 0 -6276420.851 -9070321.943 23041271.836 10 0 60506 8100.00000 0 -4443616.318 -11189865.567 22524322.526 10 0 60506 9000.00000 0 -2826280.546 -13367529.653 21571597.536 10 0 60506 9900.00000 0 -1452237.912 -15540164.194 20201237.932 10 0 60506 10800.00000 0 -337192.357 -17641754.059 18439474.199 10 0 60506 11700.00000 0 515719.695 -19606036.360 16320147.797 10 0 60506 12600.00000 0 1115844.087 -21369153.178 13884084.324 10 0 60506 13500.00000 0 1484393.498 -22872229.921 11178327.867 10 0 60506 14400.00000 0 1653326.072 -24063771.604 8255249.045 10 0 60506 15300.00000 0 1663763.794 -24901775.686 5171542.250 10 0 60506 16200.00000 0 1564016.178 -25355471.114 1987130.344 10 0 60506 17100.00000 0 1407292.298 -25406608.068 -1236002.368 10 0 60506 18000.00000 0 1249198.191 -25050241.429 -4435025.820 10 0 60506 18900.00000 0 1145126.776 -24294972.248 -7547503.794 10 0 60506 19800.00000 0 1147652.813 -23162634.723 -10512631.687 10 0 60506 20700.00000 0 1304045.851 -21687440.028 -13272446.134 10 0 60506 21600.00000 0 1654009.538 -19914611.950 -15772980.550 10 0 60506 22500.00000 0 2227746.160 -17898571.742 -17965341.761 10 0 60506 23400.00000 0 3044431.288 -15700749.056 -19806684.513 10 0 60506 24300.00000 0 4111165.570 -13387112.324 -21261063.128 10 0 60506 25200.00000 0 5422449.854 -11025524.057 -22300142.477 10 0 60506 26100.00000 0 6960206.975 -8683033.723 -22903753.636 10 0 60506 27000.00000 0 8694349.733 -6423223.312 -23060283.345 10 0 60506 27900.00000 0 10583870.918 -4303717.901 -22766890.085 10 0 60506 28800.00000 0 12578408.732 -2373965.922 -22029543.495 10 0 60506 29700.00000 0 14620220.682 -673381.607 -20862887.650 10 0 60506 30600.00000 0 16646481.779 770073.920 -19289932.408 10 0 60506 31500.00000 0 18591809.335 1940815.618 -17341580.570 10 0 60506 32400.00000 0 20390907.508 2836025.761 -15056001.802 10 0 60506 33300.00000 0 21981220.189 3465500.395 -12477867.256 10 0 60506 34200.00000 0 23305480.993 3850961.087 -9657461.330 10 0 60506 35100.00000 0 24314054.094 4024864.458 -6649689.292 10 0 60506 36000.00000 0 24966968.993 4028762.893 -3513001.063 10 0 60506 36900.00000 0 25235565.624 3911288.167 -308252.895 10 0 60506 37800.00000 0 25103682.927 3725844.984 2902470.666 10 0 60506 38700.00000 0 24568343.307 3528112.826 6057051.763 10 0 60506 39600.00000 0 23639906.466 3373461.783 9094528.565 10 0 60506 40500.00000 0 22341687.999 3314390.877 11956256.932 10 0 60506 41400.00000 0 20709060.060 3398095.789 14587023.365 10 0 60506 42300.00000 0 18788072.295 3664266.993 16936089.483 10 0 60506 43200.00000 0 16633650.469 4143209.388 18958149.806 10 0 60506 44100.00000 0 14307446.934 4854361.155 20614186.443 10 0 60506 45000.00000 0 11875430.776 5805273.071 21872206.107 10 0 60506 45900.00000 0 9405315.622 6991090.900 22707846.980 10 0 60506 46800.00000 0 6963929.357 8394563.131 23104844.980 10 0 60506 47700.00000 0 4614632.298 9986575.219 23055351.132 10 0 60506 48600.00000 0 2414888.408 11727190.267 22560093.976 10 0 60506 49500.00000 0 414088.265 13567155.592 21628383.214 10 0 60506 50400.00000 0 -1348287.320 15449815.522 20277953.182 10 0 60506 51300.00000 0 -2844087.490 17313353.867 18534647.257 10 0 60506 52200.00000 0 -4057436.271 19093275.453 16431946.926 10 0 60506 53100.00000 0 -4985162.160 20725025.389 14010352.068 10 0 60506 54000.00000 0 -5636693.271 22146638.084 11316621.873 10 0 60506 54900.00000 0 -6033420.961 23301305.639 8402888.746 10 0 60506 55800.00000 0 -6207557.132 24139757.380 5325660.570 10 0 60506 56700.00000 0 -6200532.041 24622349.166 2144729.419 10 0 60506 57600.00000 0 -6060999.434 24720772.353 -1077992.516 10 0 60506 58500.00000 0 -5842533.149 24419307.723 -4279686.868 10 0 60506 59400.00000 0 -5601113.368 23715568.539 -7397868.191 10 0 60506 60300.00000 0 -5392510.470 22620698.671 -10371622.490 10 0 60506 61200.00000 0 -5269679.490 21159015.002 -13142818.880 10 0 60506 62100.00000 0 -5280278.291 19367107.523 -15657268.430 10 0 60506 63000.00000 0 -5464417.503 17292434.020 -17865805.243 10 0 60506 63900.00000 0 -5852740.434 14991468.450 -19725266.481 10 0 60506 64800.00000 0 -6464916.797 12527481.666 -21199350.506 10 0 60506 65700.00000 0 -7308616.014 9968048.793 -22259335.075 10 0 60506 66600.00000 0 -8379004.792 7382389.450 -22884640.869 10 0 60506 67500.00000 0 -9658790.821 4838653.817 -23063229.229 10 0 60506 68400.00000 0 -11118810.660 2401269.380 -22791826.784 10 0 60506 69300.00000 0 -12719136.293 128460.141 -22075973.469 10 0 60506 70200.00000 0 -14410652.631 -1929957.962 -20929894.308 10 0 60506 71100.00000 0 -16137038.149 -3734414.150 -19376198.993 10 0 60506 72000.00000 0 -17837063.913 -5256977.226 -17445416.847 10 0 60506 72900.00000 0 -19447113.075 -6482251.536 -15175377.964 10 0 60506 73800.00000 0 -20903814.042 -7407740.073 -12610454.319 10 0 60506 74700.00000 0 -22146676.241 -8043663.063 -9800677.180 10 0 60506 75600.00000 0 -23120617.902 -8412243.349 -6800749.412 10 0 60506 76500.00000 0 -23778280.417 -8546492.154 -3668972.928 10 0 60506 77400.00000 0 -24082033.363 -8488549.456 -466112.915 10 0 60506 78300.00000 0 -24005587.713 -8287651.347 2745778.739 10 0 60506 79200.00000 0 -23535151.474 -7997811.747 5904558.133 10 0 60506 80100.00000 0 -22670081.294 -7675317.003 8949179.456 10 0 60506 81000.00000 0 -21423004.516 -7376138.964 11820858.498 10 0 60506 81900.00000 0 -19819407.952 -7153374.791 14464188.456 10 0 60506 82800.00000 0 -17896711.334 -7054819.968 16828188.183 10 0 60506 83700.00000 0 -15702864.192 -7120775.079 18867264.613 10 0 60506 84600.00000 0 -13294523.841 -7382176.853 20542072.855 10 0 60506 85500.00000 0 -10734888.869 -7859130.641 21820259.299 10 0 60507 0.00000 0 -8091276.243 -8559904.966 22677075.080 10 0 60507 900.00000 0 -5432538.563 -9480430.598 23095849.754 10 0 60507 1800.00000 0 -2826429.380 -10604324.888 23068315.715 10 0 60507 2700.00000 0 -337018.295 -11903443.190 22594778.718 10 0 60507 3600.00000 0 1977735.950 -13338935.772 21684129.323 10 0 60507 4500.00000 0 4068157.040 -14862769.232 20353694.272 10 0 60507 5400.00000 0 5894678.171 -16419651.905 18628928.689 10 0 60507 6300.00000 0 7429249.206 -17949285.795 16542952.663 10 0 60507 7200.00000 0 8656264.978 -19388853.403 14135938.650 10 0 60507 8100.00000 0 9572975.113 -20675637.239 11454358.960 10 0 60507 9000.00000 0 10189356.891 -21749663.181 8550105.540 10 0 60507 9900.00000 0 10527454.919 -22556256.663 5479497.274 10 0 60507 10800.00000 0 10620213.914 -23048403.167 2302192.796 10 0 60507 11700.00000 0 10509852.704 -23188811.735 -919970.609 10 0 60507 12600.00000 0 10245847.482 -22951591.825 -4124189.096 10 0 60507 13500.00000 0 9882609.850 -22323469.843 -7247930.815 10 0 60507 14400.00000 0 9476958.904 -21304490.900 -10230175.151 10 0 60507 15300.00000 0 9085496.107 -19908173.303 -13012626.386 10 0 60507 16200.00000 0 8761996.535 -18161107.028 -15540875.779 10 0 60507 17100.00000 0 8554929.619 -16102011.374 -17765487.046 10 0 60507 18000.00000 0 8505217.210 -13780290.833 -19642981.857 10 0 60507 18900.00000 0 8644326.445 -11254149.931 -21136704.368 10 0 60507 19800.00000 0 8992780.188 -8588346.977 -22217546.612 10 0 60507 20700.00000 0 9559149.521 -5851682.198 -22864519.836 10 0 60507 21600.00000 0 10339571.549 -3114326.812 -23065160.511 10 0 60507 22500.00000 0 11317812.911 -445106.187 -22815763.496 10 0 60507 23400.00000 0 12465875.611 2091148.326 -22121438.679 10 0 60507 24300.00000 0 13745118.399 4436067.861 -20995991.306 10 0 60507 25200.00000 0 15107844.905 6539932.069 -19461629.813 10 0 60507 26100.00000 0 16499289.878 8363482.540 -17548508.602 10 0 60507 27000.00000 0 17859918.270 9879289.902 -15294116.417 10 0 60507 27900.00000 0 19127939.045 11072620.137 -12742523.940 10 0 60507 28800.00000 0 20241926.932 11941767.165 -9943506.869 10 0 60507 29700.00000 0 21143441.473 12497841.382 -6951562.937 10 0 60507 30600.00000 0 21779533.371 12764026.676 -3824843.060 10 0 60507 31500.00000 0 22105033.508 12774340.570 -624018.215 10 0 60507 32400.00000 0 22084529.733 12571952.531 2588895.604 10 0 60507 33300.00000 0 21693949.948 12207133.438 5751731.646 10 0 60507 34200.00000 0 20921686.832 11734923.889 8803363.196 10 0 60507 35100.00000 0 19769218.730 11212620.031 11684868.843 10 0 60507 36000.00000 0 18251202.088 10697182.372 14340651.082 10 0 60507 36900.00000 0 16395032.433 10242675.576 16719488.310 10 0 60507 37800.00000 0 14239892.498 9897845.348 18775501.869 10 0 60507 38700.00000 0 11835326.549 9703932.429 20469021.544 10 0 60507 39600.00000 0 9239399.018 9692813.772 21767334.732 10 0 60507 40500.00000 0 6516511.905 9885547.496 22645306.611 10 0 60507 41400.00000 0 3734968.986 10291381.780 23085860.664 10 0 60507 42300.00000 0 964384.958 10907269.234 23080311.018 10 0 60507 43200.00000 0 -1726956.103 11717907.860 22628540.350 10 0 60507 44100.00000 0 -4274686.286 12696308.555 21739019.290 10 0 60507 45000.00000 0 -6620778.546 13804867.738 20428665.702 10 0 60507 45900.00000 0 -8715711.650 14996902.954 18722544.666 10 0 60507 46800.00000 0 -10520286.392 16218590.111 16653412.644 10 0 60507 47700.00000 0 -12007017.574 17411223.858 14261112.063 10 0 60507 48600.00000 0 -13161043.122 18513708.538 11591825.463 10 0 60507 49500.00000 0 -13980511.129 19465176.530 8697201.262 10 0 60507 50400.00000 0 -14476427.067 20207624.364 5633366.190 10 0 60507 51300.00000 0 -14671965.948 20688455.075 2459842.255 10 0 60507 52200.00000 0 -14601276.940 20862818.076 -761611.282 10 0 60507 53100.00000 0 -14307829.911 20695645.463 -3968208.144 10 0 60507 54000.00000 0 -13842373.435 20163295.836 -7097372.978 10 0 60507 54900.00000 0 -13260591.024 19254732.949 -10087981.231 10 0 60507 55800.00000 0 -12620556.154 17972186.376 -12881574.788 10 0 60507 56700.00000 0 -11980095.615 16331263.417 -15423527.229 10 0 60507 57600.00000 0 -11394175.154 14360505.285 -17664133.667 10 0 60507 58500.00000 0 -10912420.830 12100404.978 -19559601.692 10 0 60507 59400.00000 0 -10576883.380 9601927.533 -21072922.298 10 0 60507 60300.00000 0 -10420142.363 6924595.046 -22174602.464 10 0 60507 61200.00000 0 -10463831.773 4134217.568 -22843244.313 10 0 60507 62100.00000 0 -10717650.265 1300366.160 -23065959.385 10 0 60507 63000.00000 0 -11178897.900 -1506304.909 -22838610.336 10 0 60507 63900.00000 0 -11832558.272 -4216773.689 -22165876.213 10 0 60507 64800.00000 0 -12651921.273 -6766289.678 -21061141.293 10 0 60507 65700.00000 0 -13599718.505 -9096826.287 -19546211.205 10 0 60507 66600.00000 0 -14629721.439 -11159244.888 -17650863.539 10 0 60507 67500.00000 0 -15688732.954 -12915081.547 -15412243.517 10 0 60507 68400.00000 0 -16718886.521 -14337884.073 -12874118.142 10 0 60507 69300.00000 0 -17660154.633 -15414046.306 -10086005.017 10 0 60507 70200.00000 0 -18452959.914 -16143108.122 -7102194.152 10 0 60507 71100.00000 0 -19040778.538 -16537512.129 -3980682.871 10 0 60507 72000.00000 0 -19372626.597 -16621830.770 -782045.369 10 0 60507 72900.00000 0 -19405325.605 -16431499.468 2431740.787 10 0 60507 73800.00000 0 -19105453.076 -16011111.631 5598488.476 10 0 60507 74700.00000 0 -18450897.748 -15412349.074 8656992.504 10 0 60507 75600.00000 0 -17431955.734 -14691635.832 11548196.608 10 0 60507 76500.00000 0 -16051923.011 -13907614.129 14216314.814 10 0 60507 77400.00000 0 -14327160.470 -13118547.875 16609887.131 10 0 60507 78300.00000 0 -12286629.172 -12379761.395 18682751.157 10 0 60507 79200.00000 0 -9970914.875 -11741219.131 20394912.913 10 0 60507 80100.00000 0 -7430781.364 -11245345.883 21713302.042 10 0 60507 81000.00000 0 -4725310.873 -10925177.170 22612398.600 10 0 60507 81900.00000 0 -1919706.320 -10802915.791 23074720.665 10 0 60507 82800.00000 0 917156.395 -10888954.265 23091164.166 10 0 60507 83700.00000 0 3715327.699 -11181404.103 22661188.530 10 0 60507 84600.00000 0 6406430.641 -11666152.483 21792843.981 10 0 60507 85500.00000 0 8926247.116 -12317445.590 20502638.726 10 0 60508 0.00000 0 11217138.730 -13098976.364 18815246.925 10 0 60508 900.00000 0 13230204.297 -13965434.123 16763059.772 10 0 60508 1800.00000 0 14927081.723 -14864452.602 14385588.168 10 0 60508 2700.00000 0 16281322.994 -15738878.364 11728722.939 10 0 60508 3600.00000 0 17279280.678 -16529264.950 8843866.698 10 0 60508 4500.00000 0 17920468.620 -17176489.060 5786951.437 10 0 60508 5400.00000 0 18217379.665 -17624378.393 2617359.692 10 0 60508 6300.00000 0 18194766.417 -17822239.177 -603230.345 10 0 60508 7200.00000 0 17888413.898 -17727174.645 -3812053.110 10 0 60508 8100.00000 0 17343455.083 -17306093.728 -6946492.861 10 0 60508 9000.00000 0 16612300.426 -16537321.921 -9945324.169 10 0 60508 9900.00000 0 15752269.604 -15411742.879 -12749929.383 10 0 60508 10800.00000 0 14823027.045 -13933419.379 -15305467.028 10 0 60508 11700.00000 0 13883931.814 -12119664.799 -17561965.989 10 0 60508 12600.00000 0 12991416.194 -10000560.020 -19475321.843 10 0 60508 13500.00000 0 12196506.319 -7617934.934 -21008174.122 10 0 60508 14400.00000 0 11542591.867 -5023857.088 -22130646.059 10 0 60508 15300.00000 0 11063540.641 -2278691.147 -22820931.529 10 0 60508 16200.00000 0 10782238.661 551188.611 -23065717.577 10 0 60508 17100.00000 0 10709617.594 3395935.843 -22860434.649 10 0 60508 18000.00000 0 10844209.980 6184912.453 -22209330.494 10 0 60508 18900.00000 0 11172249.686 8849398.719 -21125367.573 10 0 60508 19800.00000 0 11668311.467 11325219.630 -19629947.459 10 0 60508 20700.00000 0 12296460.427 13555177.924 -17752469.344 10 0 60508 21600.00000 0 13011860.491 15491193.147 -15529732.983 10 0 60508 22500.00000 0 13762771.788 17096059.102 -13005199.449 10 0 60508 23400.00000 0 14492850.697 18344748.562 -10228125.692 10 0 60508 24300.00000 0 15143654.049 19225213.651 -7252591.167 10 0 60508 25200.00000 0 15657240.963 19738651.667 -4136436.557 10 0 60508 26100.00000 0 15978762.355 19899228.623 -940136.075 10 0 60508 27000.00000 0 16058929.317 19733275.368 2274374.389 10 0 60508 27900.00000 0 15856257.321 19277992.853 5444890.559 10 0 60508 28800.00000 0 15338993.040 18579723.114 8510131.828 10 0 60508 29700.00000 0 14486644.242 17691859.990 11410909.936 10 0 60508 30600.00000 0 13291049.916 16672487.818 14091253.020 10 0 60508 31500.00000 0 11756946.864 15581846.918 16499464.973 10 0 60508 32400.00000 0 9902009.631 14479731.088 18589101.601 10 0 60508 33300.00000 0 7756362.018 13422924.543 20319846.779 10 0 60508 34200.00000 0 5361579.718 12462783.663 21658273.688 10 0 60508 35100.00000 0 2769223.930 11643062.726 22578478.180 10 0 60508 36000.00000 0 38964.582 10998072.716 23062573.484 10 0 60508 36900.00000 0 -2763631.806 10551248.848 23101037.466 10 0 60508 37800.00000 0 -5569561.071 10314186.006 22692905.988 10 0 60508 38700.00000 0 -8308988.473 10286182.499 21845808.059 10 0 60508 39600.00000 0 -10913898.778 10454312.134 20575840.929 10 0 60508 40500.00000 0 -13320681.925 10794023.171 18907285.691 10 0 60508 41400.00000 0 -15472548.726 11270241.178 16872166.606 10 0 60508 42300.00000 0 -17321677.010 11838931.894 14509660.103 10 0 60508 43200.00000 0 -18830998.906 12449060.742 11865362.307 10 0 60508 44100.00000 0 -19975553.852 13044868.495 8990426.842 10 0 60508 45000.00000 0 -20743349.265 13568368.474 5940587.673 10 0 60508 45900.00000 0 -21135690.982 13961960.335 2775084.577 10 0 60508 46800.00000 0 -21166967.568 14171049.470 -444488.547 10 0 60508 47700.00000 0 -20863895.796 14146559.737 -3655389.944 10 0 60508 48600.00000 0 -20264257.724 13847230.835 -6794966.443 10 0 60508 49500.00000 0 -19415182.077 13241600.130 -9801894.477 10 0 60508 50400.00000 0 -18371042.616 12309581.783 -12617399.382 10 0 60508 51300.00000 0 -17191063.210 11043573.075 -15186426.877 10 0 60508 52200.00000 0 -15936732.356 9449038.146 -17458741.499 10 0 60508 53100.00000 0 -14669138.462 7544542.030 -19389928.289 10 0 60508 54000.00000 0 -13446340.814 5361231.891 -20942276.383 10 0 60508 54900.00000 0 -12320889.289 2941786.271 -22085525.876 10 0 60508 55800.00000 0 -11337599.328 338876.405 -22797462.553 10 0 60508 56700.00000 0 -10531677.163 -2386795.354 -23064348.679 10 0 60508 57600.00000 0 -9927274.697 -5168796.981 -22881181.772 10 0 60508 58500.00000 0 -9536534.546 -7937510.554 -22251777.177 10 0 60508 59400.00000 0 -9359164.222 -10622810.984 -21188674.035 10 0 60508 60300.00000 0 -9382555.477 -13156767.005 -19712868.031 10 0 60508 61200.00000 0 -9582441.327 -15476251.292 -17853377.817 10 0 60508 62100.00000 0 -9924060.371 -17525351.114 -15646655.331 10 0 60508 63000.00000 0 -10363776.558 -19257479.900 -13135853.194 10 0 60508 63900.00000 0 -10851083.577 -20637103.252 -10369965.114 10 0 60508 64800.00000 0 -11330907.199 -21641009.683 -7402857.399 10 0 60508 65700.00000 0 -11746106.895 -22259075.777 -4292211.556 10 0 60508 66600.00000 0 -12040070.343 -22494496.897 -1098399.363 10 0 60508 67500.00000 0 -12159291.166 -22363476.923 2116687.316 10 0 60508 68400.00000 0 -12055821.708 -21894392.949 5290829.304 10 0 60508 69300.00000 0 -11689498.439 -21126472.393 8362672.750 10 0 60508 70200.00000 0 -11029847.600 -20108039.753 11272899.473 10 0 60508 71100.00000 0 -10057592.343 -18894407.431 13965353.691 10 0 60508 72000.00000 0 -8765699.313 -17545499.123 16388105.017 10 0 60508 72900.00000 0 -7159921.625 -16123304.550 18494429.114 10 0 60508 73800.00000 0 -5258815.724 -14689270.611 20243689.145 10 0 60508 74700.00000 0 -3093230.930 -13301736.142 21602102.980 10 0 60508 75600.00000 0 -705291.609 -12013515.265 22543383.147 10 0 60508 76500.00000 0 1853087.754 -10869728.123 23049238.587 10 0 60508 77400.00000 0 4522095.591 -9905967.716 23109729.371 10 0 60508 78300.00000 0 7236248.944 -9146878.018 22723467.772 10 0 60508 79200.00000 0 9926862.865 -8605202.145 21897661.287 10 0 60508 80100.00000 0 12524664.242 -8281340.483 20647995.646 10 0 60508 81000.00000 0 14962444.425 -8163438.180 18998358.225 10 0 60508 81900.00000 0 17177642.667 -8227999.860 16980404.959 10 0 60508 82800.00000 0 19114754.234 -8441007.772 14632976.561 10 0 60508 83700.00000 0 20727463.293 -8759498.522 12001372.753 10 0 60508 84600.00000 0 21980411.089 -9133534.000 9136496.122 10 0 60508 85500.00000 0 22850524.133 -9508484.951 6093880.208 10 0 60509 0.00000 0 23327844.864 -9827531.549 2932619.582 10 0 60509 900.00000 0 23415827.958 -10034275.375 -285779.728 10 0 60509 1800.00000 0 23131087.035 -10075350.796 -3498602.677 10 0 60509 2700.00000 0 22502601.526 -9902923.863 -6643161.914 10 0 60509 3600.00000 0 21570415.179 -9476969.745 -9658038.943 10 0 60509 4500.00000 0 20383880.841 -8767229.308 -12484305.131 10 0 60509 5400.00000 0 18999526.003 -7754758.643 -15066696.199 10 0 60509 6300.00000 0 17478630.092 -6433002.772 -17354714.854 10 0 60509 7200.00000 0 15884617.548 -4808345.351 -19303637.804 10 0 60509 8100.00000 0 14280378.701 -2900109.012 -20875405.628 10 0 60509 9000.00000 0 12725633.520 -740004.902 -22039376.764 10 0 60509 9900.00000 0 11274451.225 1628946.016 -22772929.996 10 0 60509 10800.00000 0 9973031.528 4153974.548 -23061903.485 10 0 60509 11700.00000 0 8857841.564 6774541.576 -22900862.077 10 0 60509 12600.00000 0 7954186.746 9424649.161 -22293188.513 10 0 60509 13500.00000 0 7275274.619 12035386.609 -21250997.994 10 0 60509 14400.00000 0 6821809.227 14537604.010 -19794879.262 10 0 60509 15300.00000 0 6582130.620 16864600.843 -17953468.966 10 0 60509 16200.00000 0 6532890.678 18954717.136 -15762869.357 10 0 60509 17100.00000 0 6640233.707 20753719.415 -13265922.372 10 0 60509 18000.00000 0 6861429.044 22216882.889 -10511355.888 10 0 60509 18900.00000 0 7146884.142 23310684.622 -7552820.169 10 0 60509 19800.00000 0 7442451.059 24014039.258 -4447834.389 10 0 60509 20700.00000 0 7691927.531 24319028.328 -1256664.565 10 0 60509 21600.00000 0 7839646.325 24231095.517 1958844.885 10 0 60509 22500.00000 0 7833043.603 23768702.574 5136463.274 10 0 60509 23400.00000 0 7625098.559 22962462.752 8214766.784 10 0 60509 24300.00000 0 7176542.622 21853790.080 11134310.373 10 0 60509 25200.00000 0 6457746.510 20493122.223 13838757.133 10 0 60509 26100.00000 0 5450207.160 18937791.758 16275944.865 10 0 60509 27000.00000 0 4147573.137 17249634.460 18398871.221 10 0 60509 27900.00000 0 2556166.143 15492433.342 20166580.433 10 0 60509 28800.00000 0 694976.692 13729303.407 21544936.481 10 0 60509 29700.00000 0 -1404866.786 12020123.990 22507269.617 10 0 60509 30600.00000 0 -3701135.002 10419123.418 23034885.153 10 0 60509 31500.00000 0 -6142000.270 8972714.436 23117425.598 10 0 60509 32400.00000 0 -8667944.951 7717668.787 22753079.405 10 0 60509 33300.00000 0 -11213999.909 6679705.778 21948631.853 10 0 60509 34200.00000 0 -13712223.350 5872553.207 20719355.921 10 0 60509 35100.00000 0 -16094320.193 5297520.089 19088743.518 10 0 60509 36000.00000 0 -18294295.614 4943599.989 17088080.003 10 0 60509 36900.00000 0 -20251034.096 4788102.141 14755867.673 10 0 60509 37800.00000 0 -21910697.334 4797785.689 12137106.779 10 0 60509 38700.00000 0 -23228840.761 4930451.217 9282445.528 10 0 60509 39600.00000 0 -24172159.111 5136924.137 6247213.535 10 0 60509 40500.00000 0 -24719786.079 5363347.310 3090356.040 10 0 60509 41400.00000 0 -24864091.278 5553686.293 -126711.172 10 0 60509 42300.00000 0 -24610938.499 5652340.664 -3341303.739 10 0 60509 43200.00000 0 -23979392.138 5606749.308 -6490703.389 10 0 60509 44100.00000 0 -23000882.251 5369877.031 -9513399.731 10 0 60509 45000.00000 0 -21717862.479 4902474.204 -12350312.966 10 0 60509 45900.00000 0 -20182016.943 4175010.529 -14945971.316 10 0 60509 46800.00000 0 -18452092.124 3169197.768 -17249617.783 10 0 60509 47700.00000 0 -16591446.541 1879034.033 -19216222.419 10 0 60509 48600.00000 0 -14665423.082 311323.025 -20807378.427 10 0 60509 49500.00000 0 -12738656.648 -1514355.483 -21992063.201 10 0 60509 50400.00000 0 -10872432.296 -3566223.686 -22747248.573 10 0 60509 51300.00000 0 -9122206.479 -5801408.315 -23058348.076 10 0 60509 52200.00000 0 -7535396.464 -8167521.007 -22919492.825 10 0 60509 53100.00000 0 -6149530.959 -10604649.342 -22333631.429 10 0 60509 54000.00000 0 -4990838.861 -13047673.944 -21312453.190 10 0 60509 54900.00000 0 -4073333.775 -15428813.491 -19876137.613 10 0 60509 55800.00000 0 -3398430.425 -17680290.114 -18052936.778 10 0 60509 56700.00000 0 -2955106.113 -19737003.121 -15878600.498 10 0 60509 57600.00000 0 -2720597.138 -21539099.189 -13395657.174 10 0 60509 58500.00000 0 -2661597.520 -23034332.055 -10652565.980 10 0 60509 59400.00000 0 -2735906.347 -24180114.248 -7702758.328 10 0 60509 60300.00000 0 -2894451.552 -24945176.808 -4603588.370 10 0 60509 61200.00000 0 -3083602.679 -25310769.785 -1415213.829 10 0 60509 62100.00000 0 -3247673.634 -25271355.851 1800570.674 10 0 60509 63000.00000 0 -3331509.278 -24834770.567 4981525.121 10 0 60509 63900.00000 0 -3283046.832 -24021845.078 8066157.730 10 0 60509 64800.00000 0 -3055744.897 -22865509.063 10994898.446 10 0 60509 65700.00000 0 -2610778.930 -21409412.907 13711230.914 10 0 60509 66600.00000 0 -1918912.121 -19706127.390 16162762.630 10 0 60509 67500.00000 0 -961964.366 -17814995.986 18302214.541 10 0 60509 68400.00000 0 266181.423 -15799728.467 20088313.023 10 0 60509 69300.00000 0 1759077.456 -13725834.529 21486568.999 10 0 60509 70200.00000 0 3497735.053 -11658002.230 22469931.001 10 0 60509 71100.00000 0 5451174.710 -9657527.893 23019301.009 10 0 60509 72000.00000 0 7577481.316 -7779901.985 23123904.005 10 0 60509 72900.00000 0 9825323.278 -6072649.187 22781504.431 10 0 60509 73800.00000 0 12135875.541 -4573510.736 21998464.920 10 0 60509 74700.00000 0 14445069.844 -3309043.671 20789645.084 10 0 60509 75600.00000 0 16686081.905 -2293694.969 19178140.559 10 0 60509 76500.00000 0 18791954.851 -1529389.577 17194865.123 10 0 60509 77400.00000 0 20698251.765 -1005650.633 14877981.438 10 0 60509 78300.00000 0 22345627.978 -700248.250 12272188.814 10 0 60509 79200.00000 0 23682215.927 -580351.363 9427879.332 10 0 60509 80100.00000 0 24665722.047 -604135.743 6400176.628 10 0 60509 81000.00000 0 25265146.224 -722781.662 3247874.534 10 0 60509 81900.00000 0 25462049.355 -882777.466 32295.381 10 0 60509 82800.00000 0 25251313.107 -1028431.455 -3183909.728 10 0 60509 83700.00000 0 24641357.232 -1104484.719 -6337994.571 10 0 60509 84600.00000 0 23653802.921 -1058712.351 -9368359.877 10 0 60509 85500.00000 0 22322594.640 -844400.234 -12215777.586 99